GW2922 Weather Reports


time (UTC)temp
C
wind
direction
speed
KPH
gust
KPH
rain 1hr
cm
rain 24hr
cm
rain mn
cm
humidity
%
barometer
mb
20260904174353 16 81 0.0 1.6 0.00 0.18 0.18 76 1015.8
20260904173849 16 111 0.0 1.6 0.00 0.18 0.18 78 1015.8
20260904173344 16 63 1.6 1.6 0.00 0.18 0.18 77 1015.8
20260904172840 15 78 1.6 1.6 0.00 0.18 0.18 79 1015.8
20260904172339 15 78 0.0 3.2 0.00 0.18 0.18 80 1015.8
20260904171839 16 97 0.0 1.6 0.00 0.18 0.18 80 1015.8
20260904171334 16 251 1.6 4.8 0.00 0.18 0.18 80 1015.8
20260904170831 15 191 0.0 3.2 0.00 0.18 0.18 81 1015.8
20260904170326 15 179 0.0 1.6 0.00 0.18 0.18 83 1015.8
20260904165821 15 136 0.0 3.2 0.00 0.18 0.18 85 1015.8
20260904165319 14 159 1.6 1.6 0.00 0.18 0.18 85 1015.8
20260904164815 14 114 0.0 1.6 0.00 0.18 0.18 86 1015.8
20260904164309 13 136 3.2 3.2 0.00 0.18 0.18 87 1015.8
20260904163806 13 188 3.2 4.8 0.00 0.18 0.18 88 1016.2
20260904163306 13 100 0.0 3.2 0.00 0.18 0.18 88 1015.8
20260904162805 13 96 1.6 1.6 0.00 0.18 0.18 89 1016.2
20260904162300 13 100 0.0 0.0 0.00 0.18 0.18 89 1015.8
20260904161755 13 208 0.0 3.2 0.00 0.18 0.18 90 1015.8
20260904161250 13 158 1.6 3.2 0.00 0.18 0.18 91 1015.8
20260904160746 12 77 0.0 0.0 0.00 0.18 0.18 91 1015.8
20260904160242 12 73 0.0 1.6 0.00 0.18 0.18 92 1015.8
20260904155741 12 72 0.0 0.0 0.00 0.18 0.18 93 1015.8
20260904155240 12 72 0.0 0.0 0.00 0.18 0.18 93 1015.8
20260904154738 12 72 0.0 0.0 0.00 0.18 0.18 93 1015.8
20260904154233 12 72 0.0 0.0 0.00 0.18 0.18 93 1015.8
20260904153729 12 72 0.0 0.0 0.00 0.18 0.18 93 1015.5
20260904153225 12 72 0.0 1.6 0.00 0.18 0.18 94 1015.5
20260904152721 12 72 0.0 0.0 0.00 0.18 0.18 94 1015.2
20260904152216 12 74 0.0 0.0 0.00 0.18 0.18 94 1015.2
20260904151711 11 74 1.6 3.2 0.00 0.18 0.18 94 1015.2
20260904151209 11 74 0.0 1.6 0.00 0.18 0.18 94 1015.2
20260904150705 12 74 0.0 1.6 0.00 0.18 0.18 94 1015.2
20260904150201 11 74 0.0 1.6 0.00 0.18 0.18 94 1015.2
20260904145659 11 74 0.0 1.6 0.00 0.18 0.18 94 1015.2
20260904145154 11 98 0.0 1.6 0.00 0.18 0.18 94 1015.2
20260904144649 11 104 0.0 1.6 0.18 0.18 0.18 94 1015.2
20260904144145 11 95 1.6 1.6 0.18 0.18 0.18 94 1014.8
20260904143641 11 97 0.0 0.0 0.00 0.15 0.15 94 1014.8
20260904143137 11 109 0.0 0.0 0.13 0.15 0.15 94 1014.8
20260904142634 11 109 0.0 0.0 0.13 0.15 0.15 94 1015.2
20260904142129 11 109 0.0 1.6 0.18 0.13 0.13 94 1015.2
20260904141624 11 103 0.0 1.6 0.36 0.13 0.13 94 1014.8
20260904141119 11 6 1.6 3.2 0.30 0.10 0.10 94 1015.2
20260904140610 11 93 1.6 1.6 0.13 0.08 0.08 94 1014.8
20260904140109 11 178 1.6 1.6 0.00 0.05 0.05 94 1015.2
20260904135608 11 155 1.6 1.6 0.00 0.05 0.05 94 1014.8
20260904135105 11 152 1.6 1.6 0.00 0.05 0.05 93 1014.8
20260904134600 11 155 1.6 1.6 0.00 0.05 0.05 93 1014.8
20260904134054 11 154 0.0 0.0 0.00 0.05 0.05 93 1014.8
20260904133549 11 154 0.0 1.6 0.00 0.05 0.05 93 1014.8
20260904133045 11 154 0.0 1.6 0.00 0.05 0.05 93 1014.5
20260904132539 11 155 0.0 0.0 0.00 0.05 0.05 93 1014.5
20260904132039 11 154 0.0 1.6 0.00 0.05 0.05 93 1014.5
20260904131538 11 165 0.0 0.0 0.18 0.05 0.05 93 1014.5
20260904131034 10 170 1.6 1.6 0.18 0.05 0.05 93 1014.5
20260904130534 10 162 0.0 0.0 0.00 0.03 0.03 93 1014.5
20260904130029 10 153 0.0 1.6 0.00 0.03 0.03 92 1014.5
20260904125525 10 138 4.8 9.7 0.00 0.03 0.03 92 1014.5
20260904125020 11 142 6.4 6.4 0.00 0.03 0.03 92 1014.1
20260904124515 11 102 3.2 3.2 0.00 0.03 0.03 92 1014.1
20260904124011 11 102 0.0 0.0 0.00 0.03 0.03 92 1014.1
20260904123510 11 102 0.0 0.0 0.13 0.03 0.03 92 1014.1
20260904123007 11 102 0.0 0.0 0.00 0.00 0.00 92 1014.1
20260904122501 11 102 0.0 0.0 0.00 0.00 0.00 92 1013.8
20260904121955 11 102 0.0 0.0 0.00 0.00 0.00 92 1013.8
20260904121451 11 102 0.0 0.0 0.00 0.00 0.00 92 1013.8
20260904120948 11 102 0.0 0.0 0.00 0.00 0.00 92 1013.8
20260904120443 11 102 1.6 3.2 0.00 0.00 0.00 92 1013.8
20260904115938 11 102 0.0 1.6 0.00 0.00 0.00 92 1013.5
20260904115433 11 102 0.0 1.6 0.00 0.00 0.00 92 1013.8
20260904114928 11 102 0.0 1.6 0.00 0.00 0.00 92 1013.8
20260904114428 11 102 0.0 1.6 0.00 0.00 0.00 92 1013.8
20260904113924 11 102 0.0 3.2 0.00 0.00 0.00 92 1013.8
20260904113423 11 102 1.6 1.6 0.00 0.00 0.00 92 1013.8
20260904112922 11 102 0.0 1.6 0.00 0.00 0.00 92 1013.8
20260904112418 11 102 1.6 1.6 0.00 0.00 0.00 91 1013.8
20260904111914 10 102 0.0 0.0 0.00 0.00 0.00 91 1013.8
20260904111409 10 102 0.0 0.0 0.00 0.00 0.00 91 1013.5
20260904110905 10 102 0.0 0.0 0.00 0.00 0.00 91 1013.5
20260904110403 10 102 0.0 0.0 0.00 0.00 0.00 91 1013.8
20260904105859 10 102 0.0 0.0 0.00 0.00 0.00 91 1013.5
20260904105354 10 102 0.0 0.0 0.00 0.00 0.00 91 1013.8
20260904104849 10 102 0.0 0.0 0.00 0.00 0.00 91 1013.5
20260904104344 11 102 0.0 0.0 0.00 0.00 0.00 90 1013.5
20260904103841 11 102 0.0 1.6 0.00 0.00 0.00 90 1013.5
20260904103340 11 102 3.2 3.2 0.00 0.00 0.00 90 1013.5
20260904102836 11 102 0.0 0.0 0.00 0.00 0.00 90 1013.5
20260904102331 11 102 0.0 0.0 0.00 0.00 0.00 90 1013.5
20260904101827 11 102 0.0 0.0 0.00 0.00 0.00 90 1013.5
20260904101324 11 102 0.0 0.0 0.00 0.00 0.00 91 1013.1
20260904100819 11 102 0.0 0.0 0.00 0.00 0.00 91 1013.1
20260904100316 11 102 0.0 1.6 0.00 0.00 0.00 92 1013.1
20260904095815 11 102 0.0 1.6 0.00 0.00 0.00 92 1013.1
20260904095310 11 101 1.6 1.6 0.00 0.00 0.00 92 1013.1
20260904094805 11 101 0.0 1.6 0.00 0.00 0.00 93 1013.1
20260904094300 10 101 0.0 1.6 0.00 0.00 0.00 93 1013.1
20260904093757 10 101 0.0 1.6 0.00 0.00 0.00 93 1013.1
20260904093251 10 102 0.0 0.0 0.00 0.00 0.00 93 1013.1
20260904092746 10 102 0.0 0.0 0.00 0.00 0.00 93 1013.1
20260904092243 10 102 0.0 0.0 0.00 0.00 0.00 93 1013.1
20260904091738 10 102 0.0 0.0 0.00 0.00 0.00 93 1013.5
20260904091233 10 102 0.0 0.0 0.00 0.00 0.00 93 1013.5
20260904090729 10 102 0.0 0.0 0.00 0.00 0.00 93 1013.5
20260904090224 10 102 0.0 1.6 0.00 0.00 0.00 93 1013.5
20260904085719 10 102 3.2 3.2 0.00 0.00 0.00 93 1013.5
20260904085214 10 151 0.0 0.0 0.00 0.00 0.00 93 1013.5
20260904084708 10 146 0.0 0.0 0.00 0.00 0.00 93 1013.8
20260904084159 10 141 1.6 1.6 0.00 0.00 0.00 92 1013.5
20260904083655 10 132 0.0 0.0 0.00 0.00 0.00 92 1013.8
20260904083152 10 131 0.0 0.0 0.00 0.00 0.00 92 1013.8
20260904082646 10 132 0.0 1.6 0.00 0.00 0.00 92 1013.8
20260904082141 10 132 0.0 0.0 0.00 0.00 0.00 92 1013.8
20260904081631 10 132 0.0 0.0 0.00 0.00 0.00 92 1013.5
20260904081126 10 132 0.0 0.0 0.00 0.00 0.00 92 1013.8
20260904080621 10 132 0.0 0.0 0.00 0.00 0.00 92 1013.8
20260904080118 10 131 0.0 0.0 0.00 0.00 0.00 92 1013.8
20260904075613 10 131 1.6 1.6 0.00 0.00 0.00 92 1013.8
20260904075112 10 131 0.0 1.6 0.00 0.00 0.00 91 1013.8
20260904074607 10 132 0.0 1.6 0.00 0.00 0.00 92 1013.8
20260904074102 10 126 0.0 0.0 0.00 0.00 0.00 91 1013.8
20260904073556 10 126 0.0 0.0 0.00 0.00 0.00 91 1013.8
20260904073053 10 126 0.0 0.0 0.00 0.00 0.00 91 1013.8
20260904072548 10 126 0.0 0.0 0.00 0.00 0.00 91 1013.5
20260904072044 11 126 0.0 0.0 0.00 0.00 0.00 90 1013.8
20260904071539 11 126 0.0 0.0 0.00 0.00 0.00 90 1013.8
20260904071034 11 126 0.0 0.0 0.00 0.00 0.00 90 1013.8
20260904070533 11 126 0.0 0.0 0.00 0.00 0.00 90 1013.8
20260904070028 11 126 0.0 0.0 0.00 0.15 0.15 90 1013.8
20260904065523 11 126 0.0 0.0 0.00 0.15 0.15 90 1013.8
20260904065019 11 126 0.0 0.0 0.00 0.15 0.15 90 1013.5
20260904064515 11 126 0.0 0.0 0.00 0.15 0.15 90 1013.5
20260904064009 11 151 0.0 0.0 0.00 0.15 0.15 90 1013.5
20260904063506 11 151 0.0 0.0 0.00 0.15 0.15 89 1013.5
20260904063000 11 168 0.0 1.6 0.00 0.15 0.15 89 1013.5
20260904062456 11 168 0.0 0.0 0.00 0.15 0.15 89 1013.5
20260904061952 11 157 0.0 0.0 0.00 0.15 0.15 89 1013.5
20260904061448 11 137 0.0 0.0 0.00 0.15 0.15 88 1013.5
20260904060944 11 137 0.0 0.0 0.00 0.15 0.15 88 1013.5
20260904060440 11 137 0.0 0.0 0.00 0.15 0.15 88 1013.5
20260904055935 11 137 0.0 0.0 0.00 0.15 0.15 88 1013.5
20260904055431 11 137 0.0 0.0 0.00 0.15 0.15 88 1013.5
20260904054926 11 137 0.0 0.0 0.00 0.15 0.15 88 1013.5
20260904054421 11 137 0.0 0.0 0.00 0.15 0.15 88 1013.1
20260904053917 11 137 0.0 0.0 0.00 0.15 0.15 88 1013.5
20260904053416 11 137 0.0 0.0 0.00 0.15 0.15 88 1013.5
20260904052912 11 137 0.0 1.6 0.00 0.15 0.15 89 1013.5
20260904052409 11 91 0.0 0.0 0.00 0.15 0.15 89 1013.5
20260904051905 11 92 0.0 1.6 0.00 0.15 0.15 89 1013.5
20260904051400 11 107 0.0 0.0 0.00 0.15 0.15 89 1013.5
20260904050854 11 86 0.0 0.0 0.00 0.15 0.15 89 1013.5
20260904050351 11 91 0.0 0.0 0.00 0.15 0.15 88 1013.5
20260904045845 11 88 0.0 0.0 0.00 0.15 0.15 88 1013.5
20260904045340 11 87 0.0 0.0 0.00 0.15 0.15 88 1013.5
20260904044835 11 89 0.0 0.0 0.00 0.15 0.15 88 1013.5
20260904044331 11 89 0.0 0.0 0.00 0.15 0.15 88 1013.5
20260904043827 11 90 0.0 0.0 0.00 0.15 0.15 88 1013.5
20260904043324 11 101 0.0 1.6 0.00 0.15 0.15 88 1013.5
20260904042824 11 64 1.6 1.6 0.00 0.15 0.15 87 1013.5
20260904042320 11 94 0.0 1.6 0.00 0.15 0.15 87 1013.5
20260904041820 12 110 0.0 0.0 0.00 0.15 0.15 87 1013.5
20260904041316 12 147 0.0 0.0 0.00 0.15 0.15 86 1013.5
20260904040812 12 100 0.0 0.0 0.00 0.15 0.15 86 1013.5
20260904040306 12 177 0.0 1.6 0.00 0.15 0.15 86 1013.5
20260904035803 12 125 0.0 1.6 0.00 0.15 0.15 85 1013.5
20260904035259 12 117 1.6 1.6 0.00 0.15 0.15 85 1013.5
20260904034757 12 97 0.0 1.6 0.00 0.15 0.15 84 1013.5
20260904034253 12 114 0.0 1.6 0.00 0.15 0.15 84 1013.1
20260904033749 12 112 0.0 3.2 0.00 0.15 0.15 84 1013.5
20260904033245 12 13 1.6 4.8 0.00 0.15 0.15 84 1013.5
20260904032741 12 71 0.0 1.6 0.00 0.15 0.15 84 1013.1
20260904032240 12 26 1.6 3.2 0.00 0.15 0.15 84 1013.1
20260904031735 12 109 0.0 3.2 0.00 0.15 0.15 84 1013.5
20260904031230 12 107 0.0 1.6 0.00 0.15 0.15 84 1013.1
20260904030720 12 105 0.0 1.6 0.00 0.15 0.15 83 1013.1
20260904030215 13 112 0.0 0.0 0.00 0.15 0.15 82 1013.1
20260904025707 13 111 0.0 3.2 0.00 0.15 0.15 81 1012.8
20260904025201 13 121 0.0 1.6 0.00 0.15 0.15 81 1012.8
20260904024656 13 102 1.6 1.6 0.00 0.15 0.15 79 1012.8
20260904024151 14 85 1.6 1.6 0.00 0.15 0.15 79 1012.8
20260904023647 14 96 0.0 0.0 0.00 0.15 0.15 78 1012.8
20260904023143 15 100 0.0 0.0 0.00 0.15 0.15 77 1012.5
20260904022637 15 96 0.0 0.0 0.00 0.15 0.15 77 1012.5
20260904022134 15 108 0.0 0.0 0.00 0.15 0.15 76 1012.5
20260904021630 15 108 0.0 0.0 0.00 0.15 0.15 76 1012.5
20260904021125 15 109 0.0 0.0 0.00 0.15 0.15 76 1012.5
20260904020621 15 109 0.0 0.0 0.00 0.15 0.15 75 1012.5
20260904020115 15 100 0.0 1.6 0.00 0.15 0.15 75 1012.5
20260904015615 15 100 0.0 1.6 0.00 0.15 0.15 74 1012.5
20260904015114 15 102 0.0 0.0 0.00 0.15 0.15 74 1012.5
20260904014608 15 81 3.2 3.2 0.00 0.15 0.15 74 1012.5
20260904014104 16 51 1.6 3.2 0.00 0.15 0.15 73 1012.5
20260904013601 16 29 1.6 3.2 0.00 0.15 0.15 73 1012.5
20260904013057 16 79 1.6 3.2 0.00 0.15 0.15 73 1012.5
20260904012556 16 69 1.6 3.2 0.00 0.15 0.15 71 1012.5
20260904012055 16 92 0.0 1.6 0.00 0.15 0.15 71 1012.5
20260904011549 16 120 0.0 1.6 0.00 0.15 0.15 72 1012.5
20260904011045 17 52 1.6 3.2 0.00 0.15 0.15 70 1012.1
20260904010540 17 93 1.6 1.6 0.00 0.15 0.15 68 1012.5
20260904010031 18 72 1.6 3.2 0.00 0.15 0.15 66 1012.1
20260904005525 18 122 0.0 1.6 0.00 0.15 0.15 64 1012.1
20260904005021 18 80 0.0 1.6 0.00 0.15 0.15 64 1012.1
20260904004517 18 100 0.0 1.6 0.00 0.15 0.15 63 1012.1
20260904004016 18 106 0.0 1.6 0.00 0.15 0.15 63 1012.1
20260904003512 18 90 1.6 9.7 0.00 0.15 0.15 63 1012.1
20260904003008 18 117 0.0 1.6 0.00 0.15 0.15 64 1012.1
20260904002504 18 148 1.6 3.2 0.00 0.15 0.15 65 1012.5
20260904002004 18 121 1.6 3.2 0.00 0.15 0.15 64 1012.1
20260904001459 18 149 0.0 3.2 0.00 0.15 0.15 63 1012.1
20260904000958 18 117 0.0 6.4 0.00 0.15 0.15 64 1012.1
20260904000458 18 100 0.0 3.2 0.00 0.15 0.15 65 1012.1
20260903235954 18 89 1.6 4.8 0.00 0.15 0.15 65 1012.1
20260903235450 18 166 3.2 9.7 0.00 0.15 0.15 66 1012.1
20260903234949 17 118 0.0 3.2 0.00 0.15 0.15 69 1012.1
20260903234445 17 58 1.6 3.2 0.00 0.15 0.15 68 1012.1
20260903233941 17 83 0.0 3.2 0.00 0.15 0.15 69 1012.1
20260903233437 17 129 0.0 3.2 0.00 0.15 0.15 69 1012.1
20260903232932 17 189 4.8 6.4 0.00 0.15 0.15 68 1012.5
20260903232427 17 195 4.8 9.7 0.00 0.15 0.15 68 1012.1
20260903231926 17 206 6.4 6.4 0.00 0.15 0.15 66 1012.1
20260903231421 17 117 3.2 3.2 0.00 0.15 0.15 67 1012.5
20260903230916 17 102 0.0 4.8 0.00 0.15 0.15 68 1012.5
20260903230412 17 118 3.2 3.2 0.00 0.15 0.15 69 1012.5
20260903225909 17 200 1.6 3.2 0.00 0.15 0.15 68 1012.5
20260903225404 17 106 0.0 3.2 0.00 0.15 0.15 69 1012.5
20260903224900 17 103 0.0 1.6 0.00 0.15 0.15 68 1012.5
20260903224356 17 123 0.0 1.6 0.00 0.15 0.15 69 1012.5
20260903223852 16 118 0.0 3.2 0.00 0.15 0.15 69 1012.5
20260903223350 17 101 1.6 4.8 0.00 0.15 0.15 69 1012.5
20260903222845 17 107 1.6 6.4 0.00 0.15 0.15 68 1012.5
20260903222344 17 168 1.6 3.2 0.00 0.15 0.15 68 1012.5
20260903221839 18 108 0.0 3.2 0.00 0.15 0.15 67 1012.5
20260903221338 17 110 1.6 3.2 0.00 0.15 0.15 68 1012.5
20260903220836 17 92 0.0 3.2 0.00 0.15 0.15 68 1012.5
20260903220331 17 117 1.6 1.6 0.00 0.15 0.15 68 1012.5
20260903215829 17 100 3.2 3.2 0.00 0.15 0.15 69 1012.5
20260903215326 17 94 0.0 3.2 0.00 0.15 0.15 69 1012.5
20260903214823 17 111 0.0 4.8 0.00 0.15 0.15 70 1012.5
20260903214314 17 123 3.2 9.7 0.00 0.15 0.15 70 1012.5
20260903213808 17 117 1.6 3.2 0.00 0.15 0.15 68 1012.5
20260903213304 17 214 3.2 6.4 0.00 0.15 0.15 69 1012.5
20260903212759 17 117 1.6 11.3 0.00 0.15 0.15 71 1012.5
20260903212256 17 77 3.2 6.4 0.00 0.15 0.15 70 1012.5
20260903211755 17 103 1.6 3.2 0.00 0.15 0.15 71 1012.5
20260903211252 17 113 1.6 4.8 0.00 0.15 0.15 70 1012.5
20260903210747 17 96 3.2 4.8 0.00 0.15 0.15 69 1012.1
20260903210242 17 106 3.2 3.2 0.00 0.15 0.15 70 1012.1
20260903205736 17 59 1.6 11.3 0.00 0.15 0.15 70 1012.1
20260903205236 17 165 4.8 11.3 0.00 0.15 0.15 70 1012.1
20260903204731 16 98 1.6 4.8 0.00 0.15 0.15 71 1011.8
20260903204227 17 203 3.2 4.8 0.00 0.15 0.15 70 1011.8
20260903203723 17 89 3.2 12.9 0.00 0.15 0.15 71 1012.1
20260903203218 17 115 1.6 11.3 0.00 0.15 0.15 69 1011.8
20260903202712 17 105 0.0 1.6 0.00 0.15 0.15 68 1011.8
20260903202208 17 124 3.2 16.1 0.00 0.15 0.15 68 1011.8
20260903201707 17 179 14.5 20.9 0.00 0.15 0.15 67 1011.3
20260903201202 18 66 6.4 6.4 0.00 0.15 0.15 66 1011.3
20260903200656 18 108 1.6 12.9 0.00 0.15 0.15 66 1011.3
20260903200152 18 84 3.2 24.1 0.00 0.15 0.15 66 1011.3
20260903195647 18 71 3.2 17.7 0.00 0.15 0.15 66 1011.3
20260903195143 18 192 8.0 11.3 0.00 0.15 0.15 64 1011.3
20260903194643 18 120 6.4 11.3 0.00 0.15 0.15 63 1011.3
20260903194137 17 150 9.7 14.5 0.00 0.15 0.15 67 1011.3
20260903193633 17 168 11.3 20.9 0.00 0.15 0.15 70 1011.0
20260903193128 18 91 4.8 17.7 0.00 0.15 0.15 68 1011.0
20260903192625 18 149 6.4 9.7 0.00 0.15 0.15 67 1011.3
20260903192120 18 111 12.9 22.5 0.00 0.15 0.15 66 1011.0
20260903191616 17 112 3.2 24.1 0.00 0.15 0.15 68 1011.0
20260903191111 18 101 6.4 14.5 0.00 0.15 0.15 67 1011.0
20260903190610 17 161 9.7 17.7 0.00 0.15 0.15 69 1011.0
20260903190105 16 127 4.8 17.7 0.00 0.15 0.15 71 1011.0
20260903185600 17 106 6.4 14.5 0.00 0.15 0.15 70 1011.0
20260903185056 17 115 11.3 22.5 0.00 0.15 0.15 70 1011.0
20260903184552 17 181 6.4 14.5 0.00 0.15 0.15 70 1011.0
20260903184047 17 90 9.7 20.9 0.00 0.15 0.15 70 1010.7
20260903183546 17 127 8.0 17.7 0.00 0.15 0.15 69 1010.7
20260903183041 17 205 12.9 17.7 0.00 0.15 0.15 70 1010.7
20260903182539 17 156 12.9 22.5 0.00 0.15 0.15 70 1010.7
20260903182037 16 153 3.2 25.7 0.00 0.15 0.15 73 1010.7
20260903181534 16 181 19.3 25.7 0.00 0.15 0.15 72 1010.7
20260903181034 16 181 11.3 24.1 0.00 0.15 0.15 74 1010.7
20260903180530 16 296 6.4 24.1 0.00 0.15 0.15 75 1010.7
20260903180029 16 184 8.0 20.9 0.00 0.15 0.15 75 1010.7
20260903175528 16 108 6.4 17.7 0.00 0.15 0.15 76 1010.7
20260903175028 16 130 9.7 29.0 0.00 0.15 0.15 76 1010.3
20260903174523 16 103 8.0 20.9 0.00 0.15 0.15 75 1010.3